N2WPO Weather Reports


Display with metric or nautical units.
time (UTC)temp
F
wind
direction
speed
MPH
gust
MPH
rain 1hr
in
rain 24hr
in
rain mn
in
humidity
%
barometer
mb
20260507021120 56 68 0.0 0.0 0.00 0.00 0.07 96 1002.0
20260507020621 56 135 1.0 2.0 0.00 0.00 0.07 96 1002.0
20260507020120 56 293 1.0 2.0 0.00 0.00 0.07 96 1002.0
20260507015621 56 68 0.0 0.0 0.00 0.00 0.07 96 1002.0
20260507015120 56 248 0.0 0.0 0.00 0.00 0.07 96 1002.0
20260507014621 56 248 3.0 5.0 0.00 0.00 0.07 96 1002.0
20260507014121 56 135 0.0 1.0 0.00 0.00 0.07 96 1002.0
20260507013620 56 338 0.0 0.0 0.00 0.00 0.07 96 1002.0
20260507013120 56 315 3.0 4.0 0.00 0.00 0.07 96 1002.0
20260507012620 56 68 0.0 1.0 0.00 0.00 0.07 96 1003.0
20260507012120 56 203 1.0 1.0 0.00 0.00 0.07 96 1003.0
20260507011620 56 248 0.0 0.0 0.00 0.00 0.07 96 1002.0
20260507011120 56 90 2.0 3.0 0.00 0.00 0.07 95 1002.0
20260507010621 56 338 0.0 1.0 0.00 0.00 0.07 95 1003.0
20260507010120 56 180 3.0 6.0 0.00 0.00 0.07 95 1003.0
20260507005620 56 180 5.0 7.0 0.00 0.00 0.07 95 1003.0
20260507005120 56 68 1.0 3.0 0.00 0.00 0.07 95 1003.0
20260507004622 56 158 2.0 3.0 0.00 0.00 0.07 95 1002.0
20260507004121 55 23 2.0 3.0 0.00 0.00 0.07 95 1002.0
20260507003620 55 270 1.0 2.0 0.00 0.00 0.07 95 1003.0
20260507003120 55 338 0.0 2.0 0.00 0.00 0.07 95 1002.0
20260507002620 55 248 0.0 0.0 0.00 0.00 0.07 95 1002.0
20260507002120 55 293 0.0 1.0 0.00 0.00 0.07 95 1002.0
20260507001620 55 270 3.0 3.0 0.00 0.00 0.07 95 1003.0
20260507001121 55 248 4.0 7.0 0.00 0.00 0.07 95 1002.0
20260507000620 55 248 0.0 0.0 0.00 0.00 0.07 95 1002.0
20260507000120 55 270 3.0 5.0 0.00 0.00 0.07 95 1002.0
20260506235620 55 248 0.0 1.0 0.01 0.00 0.07 95 1002.0
20260506235120 55 23 0.0 0.0 0.01 0.00 0.07 95 1002.0
20260506234620 55 45 1.0 2.0 0.01 0.00 0.07 95 1002.0
20260506234120 55 135 3.0 3.0 0.01 0.00 0.07 95 1002.0
20260506233620 55 23 3.0 4.0 0.01 0.00 0.07 95 1002.0
20260506233121 55 45 1.0 2.0 0.01 0.00 0.07 95 1002.0
20260506232620 55 68 0.0 0.0 0.00 0.00 0.06 94 1002.0
20260506232121 55 45 1.0 2.0 0.00 0.00 0.06 94 1002.0
20260506231621 56 248 1.0 2.0 0.00 0.00 0.06 94 1002.0
20260506231120 56 248 2.0 2.0 0.00 0.00 0.06 94 1003.0
20260506230620 56 0 2.0 3.0 0.00 0.00 0.06 94 1003.0
20260506230120 56 293 1.0 2.0 0.00 0.00 0.06 94 1003.0
20260506225620 56 315 0.0 0.0 0.02 0.00 0.06 94 1003.0
20260506225120 56 225 2.0 3.0 0.01 0.00 0.05 94 1002.0
20260506224620 56 90 2.0 3.0 0.01 0.00 0.05 94 1002.0
20260506224120 56 338 1.0 2.0 0.01 0.00 0.05 94 1002.0
20260506223620 56 338 2.0 3.0 0.01 0.00 0.05 94 1003.0
20260506223120 56 113 1.0 3.0 0.01 0.00 0.05 94 1002.0
20260506222620 56 68 1.0 3.0 0.01 0.00 0.05 94 1003.0
20260506222120 56 338 2.0 3.0 0.01 0.00 0.05 94 1002.0
20260506221620 56 90 1.0 2.0 0.01 0.00 0.05 94 1003.0
20260506221120 57 315 4.0 6.0 0.01 0.00 0.05 93 1003.0
20260506220620 57 315 1.0 2.0 0.00 0.00 0.04 93 1003.0
20260506220122 57 90 3.0 6.0 0.00 0.00 0.04 93 1003.0
20260506215621 57 293 3.0 3.0 0.01 0.00 0.02 92 1003.0
20260506215119 57 248 2.0 3.0 0.01 0.00 0.02 92 1003.0
20260506214620 58 248 0.0 1.0 0.01 0.00 0.02 91 1003.0
20260506214120 58 270 3.0 4.0 0.00 0.00 0.01 91 1003.0
20260506213620 58 0 0.0 1.0 0.00 0.00 0.01 90 1003.0
20260506213120 58 113 0.0 2.0 0.00 0.00 0.01 91 1003.0
20260506212620 58 315 1.0 3.0 0.00 0.00 0.01 91 1003.0
20260506212120 58 338 0.0 0.0 0.00 0.00 0.01 91 1003.0
20260506211620 58 315 1.0 2.0 0.00 0.00 0.01 91 1003.0
20260506211120 58 180 3.0 4.0 0.00 0.00 0.01 91 1003.0
20260506210621 58 270 3.0 3.0 0.00 0.00 0.01 91 1003.0
20260506210122 58 270 1.0 2.0 0.00 0.00 0.01 91 1003.0
20260506205620 58 90 4.0 6.0 0.00 0.00 0.01 90 1003.0
20260506205120 59 0 1.0 2.0 0.00 0.00 0.01 90 1003.0
20260506204621 59 68 4.0 7.0 0.00 0.00 0.01 89 1003.0
20260506204121 59 338 2.0 3.0 0.00 0.00 0.01 89 1003.0
20260506203622 59 203 3.0 6.0 0.00 0.00 0.01 89 1003.0
20260506203120 59 270 3.0 4.0 0.00 0.00 0.01 89 1003.0
20260506202621 59 293 1.0 3.0 0.00 0.00 0.01 89 1003.0
20260506202121 60 338 2.0 3.0 0.00 0.00 0.01 88 1003.0
20260506201621 60 293 3.0 5.0 0.00 0.00 0.01 87 1003.0
20260506201122 61 0 3.0 4.0 0.00 0.00 0.01 87 1003.0
20260506200620 61 315 1.0 2.0 0.00 0.00 0.01 87 1003.0
20260506200121 61 225 4.0 7.0 0.00 0.00 0.01 87 1003.0
20260506195621 61 225 3.0 4.0 0.00 0.00 0.00 87 1003.0
20260506195120 61 23 0.0 1.0 0.00 0.00 0.00 84 1003.0
20260506194619 62 338 2.0 3.0 0.00 0.00 0.00 84 1003.0
20260506194121 62 270 0.0 0.0 0.00 0.00 0.00 83 1003.0
20260506193621 62 0 3.0 3.0 0.00 0.00 0.00 82 1004.0
20260506193120 62 248 2.0 3.0 0.00 0.00 0.00 79 1004.0
20260506192621 63 68 0.0 2.0 0.00 0.00 0.00 79 1004.0
20260506192120 63 158 0.0 0.0 0.00 0.00 0.00 78 1003.0
20260506191620 64 293 7.0 13.0 0.00 0.00 0.00 74 1004.0
20260506191120 64 113 1.0 2.0 0.00 0.00 0.00 72 1004.0
20260506190620 64 248 6.0 10.0 0.00 0.00 0.00 71 1004.0
20260506190124 64 270 1.0 2.0 0.00 0.00 0.00 71 1004.0
20260506185620 65 315 2.0 3.0 0.00 0.00 0.00 71 1004.0
20260506185120 65 293 2.0 5.0 0.00 0.00 0.00 71 1004.0
20260506184621 65 338 1.0 2.0 0.00 0.00 0.00 70 1004.0
20260506184120 65 203 2.0 3.0 0.00 0.00 0.00 69 1003.0
20260506183621 66 315 4.0 5.0 0.00 0.00 0.00 69 1004.0
20260506183121 66 338 4.0 7.0 0.00 0.00 0.00 68 1004.0
20260506182621 66 158 4.0 6.0 0.00 0.00 0.00 69 1004.0
20260506182121 66 270 2.0 3.0 0.00 0.00 0.00 68 1004.0
20260506181620 66 315 2.0 3.0 0.00 0.00 0.00 67 1004.0
20260506181120 66 158 3.0 4.0 0.00 0.00 0.00 67 1004.0
20260506180620 67 338 2.0 3.0 0.00 0.00 0.00 68 1004.0
20260506180120 67 23 2.0 3.0 0.00 0.00 0.00 67 1004.0
20260506175620 67 315 0.0 1.0 0.00 0.00 0.00 66 1004.0
20260506175121 67 68 1.0 2.0 0.00 0.00 0.00 66 1004.0
20260506174621 68 338 2.0 3.0 0.00 0.00 0.00 65 1004.0
20260506174121 68 338 0.0 1.0 0.00 0.00 0.00 63 1004.0
20260506173621 68 23 1.0 3.0 0.00 0.00 0.00 64 1005.0
20260506173122 69 225 2.0 3.0 0.00 0.00 0.00 63 1005.0
20260506172621 70 203 3.0 5.0 0.00 0.00 0.00 61 1005.0
20260506172120 70 293 2.0 3.0 0.00 0.00 0.00 62 1004.0
20260506171620 70 248 5.0 8.0 0.00 0.00 0.00 60 1004.0
20260506171121 70 113 4.0 7.0 0.00 0.00 0.00 60 1004.0
20260506170620 70 225 0.0 1.0 0.00 0.00 0.00 62 1004.0
20260506170120 68 225 3.0 5.0 0.00 0.00 0.00 64 1005.0
20260506165621 68 225 4.0 7.0 0.00 0.00 0.00 63 1005.0
20260506165120 68 248 2.0 3.0 0.00 0.00 0.00 64 1005.0
20260506164620 68 113 3.0 4.0 0.00 0.00 0.00 63 1005.0
20260506164120 69 315 3.0 5.0 0.00 0.00 0.00 63 1005.0
20260506163621 69 315 5.0 6.0 0.00 0.00 0.00 63 1005.0
20260506163121 69 45 1.0 2.0 0.00 0.00 0.00 62 1005.0
20260506162621 68 293 2.0 3.0 0.00 0.00 0.00 64 1005.0
20260506162121 68 180 3.0 3.0 0.00 0.00 0.00 64 1005.0
20260506161620 68 315 3.0 5.0 0.00 0.00 0.00 62 1005.0
20260506161120 69 68 0.0 2.0 0.00 0.00 0.00 63 1005.0
20260506160620 69 135 3.0 4.0 0.00 0.00 0.00 62 1005.0
20260506160124 69 293 1.0 2.0 0.00 0.00 0.00 62 1005.0
20260506155620 69 225 3.0 3.0 0.00 0.00 0.00 61 1005.0
20260506155120 70 68 2.0 3.0 0.00 0.00 0.00 60 1005.0
20260506154621 70 23 2.0 3.0 0.00 0.00 0.00 63 1005.0
20260506154120 70 90 3.0 3.0 0.00 0.00 0.00 62 1006.0
20260506153621 70 68 4.0 5.0 0.00 0.00 0.00 59 1006.0
20260506153121 70 203 1.0 2.0 0.00 0.00 0.00 62 1006.0
20260506152620 70 90 1.0 2.0 0.00 0.00 0.00 61 1006.0
20260506152120 69 293 1.0 2.0 0.00 0.00 0.00 62 1006.0
20260506151620 69 270 5.0 11.0 0.00 0.00 0.00 63 1006.0
20260506151121 69 203 3.0 5.0 0.00 0.00 0.00 66 1006.0
20260506150620 68 180 3.0 6.0 0.00 0.00 0.00 63 1006.0
20260506150121 68 293 4.0 5.0 0.00 0.00 0.00 63 1006.0
20260506145620 69 248 6.0 9.0 0.00 0.00 0.00 64 1006.0
20260506145120 69 113 5.0 6.0 0.00 0.00 0.00 63 1006.0
20260506144620 69 248 1.0 3.0 0.00 0.00 0.00 64 1006.0
20260506144124 69 338 1.0 3.0 0.00 0.00 0.00 62 1006.0
20260506143620 69 68 2.0 3.0 0.00 0.00 0.00 63 1006.0
20260506143121 68 90 3.0 4.0 0.00 0.00 0.00 64 1006.0
20260506142621 69 293 5.0 6.0 0.00 0.00 0.00 62 1006.0
20260506142121 69 293 3.0 4.0 0.00 0.00 0.00 63 1006.0
20260506141622 69 113 3.0 3.0 0.00 0.00 0.00 64 1006.0
20260506141121 68 0 3.0 5.0 0.00 0.00 0.00 65 1006.0
20260506140621 67 270 2.0 3.0 0.00 0.00 0.00 66 1006.0
20260506140120 67 248 2.0 4.0 0.00 0.00 0.00 66 1006.0
20260506135620 67 113 0.0 1.0 0.00 0.00 0.00 65 1005.0
20260506135120 67 315 3.0 3.0 0.00 0.00 0.00 66 1006.0
20260506134621 67 293 5.0 7.0 0.00 0.00 0.00 66 1006.0
20260506134120 66 315 3.0 5.0 0.00 0.00 0.00 69 1006.0
20260506133621 66 338 2.0 3.0 0.00 0.00 0.00 69 1006.0
20260506133121 66 248 1.0 1.0 0.00 0.00 0.00 70 1006.0
20260506132620 66 315 2.0 3.0 0.00 0.00 0.00 73 1006.0
20260506132121 65 158 5.0 7.0 0.00 0.00 0.00 72 1006.0
20260506131620 64 293 3.0 6.0 0.00 0.00 0.00 72 1006.0
20260506131120 64 113 2.0 7.0 0.00 0.00 0.00 73 1006.0
20260506130620 63 270 7.0 8.0 0.00 0.00 0.00 74 1006.0
20260506130120 63 203 4.0 7.0 0.00 0.00 0.00 76 1006.0
20260506125620 62 68 2.0 3.0 0.00 0.00 0.00 77 1006.0
20260506125120 62 203 5.0 6.0 0.00 0.00 0.00 77 1006.0
20260506124621 61 270 3.0 4.0 0.00 0.00 0.00 78 1006.0
20260506124120 61 270 0.0 2.0 0.00 0.00 0.00 79 1006.0
20260506123620 62 338 2.0 3.0 0.00 0.00 0.00 78 1006.0
20260506123122 61 135 0.0 0.0 0.00 0.00 0.00 79 1006.0
20260506122621 61 180 1.0 3.0 0.00 0.00 0.00 79 1006.0
20260506122120 61 315 4.0 6.0 0.00 0.00 0.00 79 1006.0
20260506121620 61 315 3.0 4.0 0.00 0.00 0.00 80 1006.0
20260506121122 60 45 4.0 7.0 0.00 0.00 0.00 81 1006.0
20260506120620 60 68 3.0 4.0 0.00 0.00 0.00 82 1007.0
20260506120120 59 225 2.0 3.0 0.00 0.00 0.00 84 1006.0
20260506115620 59 293 5.0 7.0 0.00 0.00 0.00 83 1007.0
20260506115120 59 315 2.0 5.0 0.00 0.00 0.00 82 1007.0
20260506114620 60 23 3.0 3.0 0.00 0.00 0.00 82 1007.0
20260506114120 60 203 4.0 7.0 0.00 0.00 0.00 83 1007.0
20260506113620 59 315 1.0 3.0 0.00 0.00 0.00 82 1007.0
20260506113121 59 270 2.0 3.0 0.00 0.00 0.00 83 1007.0
20260506112622 59 225 3.0 4.0 0.00 0.00 0.00 84 1007.0
20260506112120 59 68 1.0 1.0 0.00 0.00 0.00 86 1007.0
20260506111620 58 225 1.0 3.0 0.00 0.00 0.00 86 1007.0
20260506111120 57 225 2.0 3.0 0.00 0.00 0.00 88 1007.0
20260506110620 57 0 1.0 2.0 0.00 0.00 0.00 88 1007.0
20260506110121 57 45 0.0 1.0 0.00 0.00 0.00 88 1007.0
20260506105620 57 113 0.0 1.0 0.00 0.00 0.00 88 1007.0
20260506105120 57 338 3.0 4.0 0.00 0.00 0.00 88 1007.0
20260506104620 57 248 2.0 3.0 0.00 0.00 0.00 88 1007.0
20260506104120 57 315 2.0 3.0 0.00 0.00 0.00 89 1007.0
20260506103621 56 270 2.0 3.0 0.00 0.00 0.00 89 1007.0
20260506103123 56 270 0.0 1.0 0.00 0.00 0.00 89 1007.0
20260506102620 56 338 2.0 3.0 0.00 0.00 0.00 89 1007.0
20260506102121 56 270 0.0 0.0 0.00 0.00 0.00 89 1007.0
20260506101620 56 315 2.0 3.0 0.00 0.00 0.00 89 1007.0
20260506101120 56 45 3.0 4.0 0.00 0.00 0.00 89 1007.0
20260506100622 56 113 0.0 0.0 0.00 0.00 0.00 89 1007.0
20260506100120 56 293 1.0 2.0 0.00 0.00 0.00 89 1006.0
20260506095621 56 0 0.0 0.0 0.00 0.00 0.00 89 1007.0
20260506095123 56 90 0.0 0.0 0.00 0.00 0.00 88 1006.0
20260506094620 56 270 1.0 3.0 0.00 0.00 0.00 88 1006.0
20260506094120 56 23 0.0 1.0 0.00 0.00 0.00 88 1006.0
20260506093620 56 68 1.0 3.0 0.00 0.00 0.00 88 1006.0
20260506093120 56 270 4.0 6.0 0.00 0.00 0.00 88 1006.0
20260506092620 56 338 1.0 2.0 0.00 0.00 0.00 88 1006.0
20260506092120 56 270 0.0 0.0 0.00 0.00 0.00 88 1006.0
20260506091620 56 248 0.0 1.0 0.00 0.00 0.00 87 1006.0
20260506091120 57 315 2.0 3.0 0.00 0.00 0.00 87 1006.0
20260506090620 57 68 1.0 3.0 0.00 0.00 0.00 87 1006.0
20260506090121 57 23 2.0 3.0 0.00 0.00 0.00 87 1007.0
20260506085620 57 68 1.0 3.0 0.00 0.00 0.00 87 1007.0
20260506085120 57 315 2.0 3.0 0.00 0.00 0.00 87 1007.0
20260506084620 57 203 2.0 3.0 0.00 0.00 0.00 87 1007.0
20260506084121 57 135 2.0 3.0 0.00 0.00 0.00 87 1007.0
20260506083620 56 135 0.0 2.0 0.00 0.00 0.00 87 1007.0
20260506083120 57 270 1.0 2.0 0.00 0.00 0.00 86 1006.0
20260506082621 57 158 1.0 2.0 0.00 0.00 0.00 86 1006.0
20260506082119 57 23 2.0 3.0 0.00 0.00 0.00 86 1007.0
20260506081620 57 293 0.0 0.0 0.00 0.00 0.00 85 1007.0
20260506081121 57 315 1.0 3.0 0.00 0.00 0.00 85 1007.0
20260506080620 57 45 0.0 0.0 0.00 0.00 0.00 84 1007.0
20260506080120 58 293 1.0 3.0 0.00 0.00 0.00 84 1007.0
20260506073120 58 338 2.0 3.0 0.00 0.00 0.00 82 1006.0
20260506072620 58 0 3.0 5.0 0.00 0.00 0.00 82 1006.0
20260506072120 58 180 1.0 3.0 0.00 0.00 0.00 82 1006.0
20260506071621 58 68 5.0 8.0 0.00 0.00 0.00 82 1006.0
20260506071120 58 248 0.0 0.0 0.00 0.00 0.00 82 1006.0
20260506070621 58 225 5.0 8.0 0.00 0.00 0.00 82 1006.0
20260506070120 58 45 3.0 4.0 0.00 0.00 0.00 82 1006.0
20260506062120 58 270 2.0 3.0 0.00 0.00 0.00 80 1006.0
20260506061620 58 45 2.0 3.0 0.00 0.00 0.00 80 1006.0
20260506061120 58 68 2.0 3.0 0.00 0.00 0.00 80 1006.0
20260506060620 58 248 5.0 7.0 0.00 0.00 0.00 79 1006.0
20260506060120 58 180 3.0 4.0 0.00 0.00 0.00 79 1006.0
20260506051120 57 113 1.0 2.0 0.00 0.00 0.00 79 1007.0
20260506050620 57 23 0.0 0.0 0.00 0.00 0.00 79 1007.0
20260506050120 57 68 4.0 5.0 0.00 0.00 0.00 79 1007.0
20260506045120 57 338 2.0 3.0 0.00 0.00 0.00 78 1007.0
20260506044621 58 113 0.0 1.0 0.00 0.00 0.00 77 1007.0
20260506044120 58 270 3.0 4.0 0.00 0.00 0.00 77 1007.0
20260506043620 58 68 2.0 3.0 0.00 0.00 0.00 76 1007.0
20260506043121 58 270 5.0 9.0 0.00 0.00 0.00 76 1007.0
20260506042621 58 23 2.0 3.0 0.00 0.00 0.00 75 1007.0
20260506042121 58 23 2.0 3.0 0.00 0.00 0.00 75 1007.0
20260506041621 58 45 1.0 3.0 0.00 0.00 0.00 75 1007.0
20260506041121 58 113 4.0 5.0 0.00 0.00 0.00 74 1007.0
20260506040620 58 23 3.0 4.0 0.00 0.00 0.00 74 1007.0
20260506040121 58 248 2.0 3.0 0.00 0.00 0.00 74 1007.0
20260506035620 58 90 2.0 3.0 0.00 0.00 0.00 74 1007.0
20260506035120 58 113 3.0 4.0 0.00 0.00 0.00 74 1007.0
20260506034620 58 338 1.0 2.0 0.00 0.00 0.00 74 1007.0
20260506034121 58 338 3.0 3.0 0.00 0.00 0.00 74 1007.0
20260506033621 58 270 0.0 1.0 0.00 0.00 0.00 73 1007.0
20260506033120 58 248 1.0 2.0 0.00 0.00 0.00 73 1007.0
20260506032620 58 293 3.0 3.0 0.00 0.00 0.00 73 1007.0
20260506032121 58 90 3.0 4.0 0.00 0.00 0.00 73 1007.0
20260506031620 58 225 0.0 1.0 0.00 0.00 0.00 73 1007.0
20260506031120 58 113 0.0 1.0 0.00 0.00 0.00 73 1007.0
20260506030620 58 293 2.0 3.0 0.00 0.00 0.00 73 1007.0
20260506030122 58 68 2.0 3.0 0.00 0.00 0.00 72 1007.0
20260506025621 58 248 4.0 6.0 0.00 0.00 0.00 72 1007.0
20260506025121 58 158 2.0 3.0 0.00 0.00 0.00 71 1007.0
20260506024621 59 68 1.0 2.0 0.00 0.00 0.00 71 1007.0
20260506024121 58 45 0.0 1.0 0.00 0.00 0.00 71 1007.0
20260506023620 59 338 0.0 1.0 0.00 0.00 0.00 71 1007.0
20260506023121 59 293 0.0 1.0 0.00 0.00 0.00 70 1007.0
20260506022621 59 23 1.0 2.0 0.00 0.00 0.00 69 1007.0
20260506022121 59 270 2.0 3.0 0.00 0.00 0.00 70 1007.0
20260506021621 59 45 1.0 2.0 0.00 0.00 0.00 70 1007.0